Location: Kott?ru
(16.6209°N, 80.6208°E)
Time: 13:28:22
(UTC+00:00)

Chandra Rocket (1) - Pass Details

Date: 18 September 2020
Orbit: 338 x 11013 km, 28.4° (Epoch: 29 October)

Event Time Altitude Azimuth Distance (km) Brightness Sun altitude
Exits shadow 22:32:04 23° 300° (WNW) 4,699 6.1 -28.0°
Maximum altitude 22:41:05 48° 1° (N) 1,837 4.4 -25.9°
Drops below altitude 10° 22:46:19 10° 77° (ENE) 2,363 6.1 -24.6°
Sets 22:47:55 0° 85° (E) 2,941 7.0 -24.3°
